Location: Cerda�ola
(41.4919°N, 2.1403°E)
Time: 20:19:30
(UTC+00:00)

Lacrosse 4 Rocket - Pass Details

Date: 12 August 2020
Orbit: 544 x 615 km, 68.0° (Epoch: 01 October)

Event Time Altitude Azimuth Distance (km) Brightness Sun altitude
Exits shadow 23:01:51 22° 3° (N) 1,281 3.7 -32.5°
Drops below altitude 10° 23:03:31 10° 15° (NNE) 1,873 4.7 -32.6°
Sets 23:05:48 0° 22° (NNE) 2,762 5.6 -32.7°
